QPF
0.23 0.13 0.06 0.02 0.01 0.00 0.00 0.00 0.00 0.00 0.00 0.00 0.00 0.00 0.00 0.00 0.00 0.00 0.00 0.00 0.00 0.00 0.00 0.00 0.00 0.00 0.00 0.00 0.00 0.00 0.00 0.00 0.00 0.00 0.00 0.01 0.01 0.01 0.01 0.01 0.01 0.02 0.02 0.02
0.18 0.09 0.03 0.02 0.02 0.01 0.01 0.01 0.00 0.00 0.00 0.00 0.00 0.00 0.00 0.00 0.00 0.00 0.00 0.00 0.00 0.00 0.00 0.00 0.00 0.00 0.00 0.00 0.00 0.00 0.00 0.00 0.00 0.00 0.00 0.00 0.00 0.01 0.01 0.01 0.01 0.02 0.02 0.02
0.10 0.04 0.03 0.03 0.03 0.01 0.00 0.00 0.00 0.00 0.00 0.00 0.00 0.00 0.00 0.00 0.00 0.00 0.00 0.00 0.00 0.00 0.00 0.00 0.00 0.00 0.00 0.00 0.00 0.00 0.00 0.00 0.00 0.00 0.00 0.00 0.01 0.00 0.00 0.00 0.00 0.01 0.01 0.02
0.07 0.03 0.03 0.03 0.02 0.01 0.00 0.00 0.00 0.00 0.00 0.00 0.00 0.00 0.00 0.00 0.00 0.00 0.00 0.00 0.00 0.00 0.00 0.00 0.00 0.00 0.00 0.00 0.00 0.00 0.00 0.00 0.00 0.00 0.00 0.00 0.00 0.00 0.00 0.00 0.00 0.00 0.01 0.01
0.06 0.03 0.04 0.04 0.02 0.01 0.00 0.00 0.00 0.00 0.00 0.00 0.00 0.00 0.00 0.00 0.00 0.00 0.00 0.00 0.00 0.00 0.00 0.00 0.00 0.00 0.00 0.00 0.00 0.00 0.00 0.00 0.00 0.00 0.00 0.00 0.00 0.00 0.00 0.00 0.00 0.00 0.00 0.01
0.03 0.02 0.04 0.04 0.03 0.01 0.01 0.00 0.00 0.00 0.00 0.00 0.00 0.00 0.00 0.00 0.00 0.00 0.00 0.00 0.00 0.00 0.00 0.00 0.00 0.00 0.00 0.00 0.00 0.00 0.00 0.00 0.00 0.00 0.00 0.00 0.00 0.00 0.00 0.00 0.00 0.00 0.00 0.00
0.06 0.04 0.04 0.05 0.05 0.03 0.02 0.01 0.02 0.02 0.01 0.00 0.00 0.00 0.00 0.00 0.00 0.00 0.00 0.00 0.00 0.00 0.00 0.00 0.00 0.00 0.00 0.00 0.00 0.00 0.00 0.00 0.00 0.00 0.00 0.00 0.00 0.00 0.00 0.00 0.00 0.00 0.00 0.00
0.06 0.07 0.05 0.05 0.06 0.04 0.02 0.01 0.01 0.01 0.00 0.00 0.00 0.00 0.00 0.00 0.00 0.00 0.00 0.00 0.00 0.00 0.00 0.00 0.00 0.00 0.00 0.00 0.00 0.00 0.00 0.00 0.00 0.00 0.00 0.00 0.00 0.00 0.00 0.00 0.00 0.00 0.00 0.00
0.03 0.05 0.04 0.03 0.04 0.04 0.03 0.01 0.00 0.00 0.00 0.00 0.00 0.00 0.00 0.00 0.00 0.00 0.00 0.00 0.00 0.00 0.00 0.00 0.00 0.00 0.00 0.00 0.00 0.00 0.00 0.00 0.00 0.00 0.00 0.00 0.00 0.00 0.00 0.00 0.00 0.00 0.00 0.00
0.01 0.02 0.03 0.03 0.03 0.04 0.03 0.02 0.01 0.00 0.00 0.00 0.00 0.00 0.00 0.00 0.00 0.00 0.00 0.00 0.00 0.00 0.00 0.00 0.00 0.00 0.00 0.00 0.00 0.00 0.00 0.00 0.00 0.00 0.00 0.00 0.00 0.00 0.00 0.00 0.00 0.00 0.00 0.00
0.01 0.01 0.02 0.03 0.04 0.04 0.03 0.03 0.01 0.01 0.00 0.00 0.00 0.00 0.00 0.00 0.00 0.00 0.00 0.00 0.00 0.00 0.00 0.00 0.00 0.00 0.00 0.00 0.00 0.00 0.00 0.00 0.00 0.00 0.00 0.00 0.00 0.00 0.00 0.00 0.00 0.00 0.00 0.00
0.01 0.00 0.02 0.02 0.01 0.01 0.02 0.02 0.01 0.01 0.01 0.00 0.00 0.00 0.00 0.00 0.00 0.00 0.00 0.00 0.00 0.00 0.00 0.00 0.00 0.00 0.00 0.00 0.00 0.00 0.00 0.00 0.00 0.00 0.00 0.00 0.00 0.00 0.00 0.00 0.00 0.00 0.00 0.00
0.01 0.00 0.02 0.03 0.02 0.01 0.01 0.01 0.01 0.01 0.01 0.00 0.00 0.00 0.00 0.00 0.00 0.00 0.00 0.00 0.00 0.00 0.00 0.00 0.00 0.00 0.00 0.00 0.00 0.00 0.00 0.00 0.00 0.00 0.00 0.00 0.00 0.00 0.00 0.00 0.00 0.00 0.00 0.00
0.01 0.00 0.00 0.00 0.00 0.00 0.00 0.00 0.00 0.01 0.02 0.00 0.00 0.00 0.00 0.00 0.00 0.00 0.00 0.00 0.00 0.00 0.00 0.00 0.00 0.00 0.00 0.00 0.00 0.00 0.00 0.00 0.00 0.00 0.00 0.00 0.00 0.00 0.00 0.00 0.00 0.00 0.00 0.00
0.01 0.00 0.00 0.00 0.00 0.00 0.00 0.00 0.00 0.00 0.00 0.00 0.00 0.00 0.00 0.00 0.00 0.00 0.00 0.00 0.00 0.00 0.00 0.00 0.00 0.00 0.00 0.00 0.00 0.00 0.00 0.00 0.00 0.00 0.00 0.00 0.00 0.00 0.00 0.00 0.00 0.00 0.00 0.00
0.00 0.00 0.00 0.00 0.00 0.00 0.00 0.00 0.00 0.00 0.00 0.00 0.00 0.00 0.00 0.00 0.00 0.00 0.00 0.00 0.00 0.00 0.00 0.00 0.00 0.00 0.00 0.00 0.00 0.00 0.00 0.00 0.00 0.00 0.00 0.00 0.00 0.00 0.00 0.00 0.00 0.00 0.00 0.00
0.00 0.00 0.00 0.00 0.00 0.00 0.00 0.00 0.00 0.00 0.00 0.00 0.00 0.00 0.00 0.00 0.00 0.00 0.00 0.00 0.00 0.00 0.00 0.00 0.00 0.00 0.00 0.00 0.00 0.00 0.00 0.00 0.00 0.00 0.00 0.00 0.00 0.00 0.00 0.00 0.00 0.00 0.00 0.00
0.00 0.00 0.00 0.00 0.00 0.00 0.00 0.00 0.00 0.00 0.00 0.00 0.00 0.00 0.00 0.00 0.00 0.00 0.00 0.00 0.00 0.00 0.00 0.00 0.00 0.00 0.00 0.00 0.00 0.00 0.00 0.00 0.00 0.00 0.00 0.00 0.00 0.00 0.00 0.00 0.00 0.00 0.00 0.00
0.00 0.00 0.00 0.00 0.00 0.00 0.00 0.00 0.00 0.00 0.00 0.00 0.00 0.00 0.00 0.00 0.00 0.00 0.00 0.00 0.00 0.00 0.00 0.00 0.00 0.00 0.00 0.00 0.00 0.00 0.00 0.00 0.00 0.00 0.00 0.00 0.00 0.00 0.00 0.00 0.00 0.00 0.00 0.00
0.00 0.00 0.01 0.00 0.00 0.00 0.00 0.00 0.00 0.00 0.00 0.00 0.00 0.00 0.00 0.00 0.00 0.00 0.00 0.00 0.00 0.00 0.00 0.00 0.00 0.00 0.00 0.00 0.00 0.00 0.00 0.00 0.00 0.00 0.00 0.00 0.00 0.00 0.00 0.00 0.00 0.00 0.00 0.00
0.00 0.01 0.01 0.01 0.01 0.00 0.00 0.00 0.00 0.00 0.00 0.00 0.00 0.00 0.00 0.00 0.00 0.00 0.00 0.00 0.00 0.00 0.00 0.00 0.00 0.00 0.00 0.00 0.00 0.00 0.00 0.00 0.00 0.00 0.00 0.00 0.00 0.00 0.00 0.00 0.00 0.00 0.00 0.00
0.00 0.00 0.00 0.00 0.00 0.00 0.00 0.00 0.00 0.00 0.00 0.00 0.00 0.00 0.00 0.00 0.00 0.00 0.00 0.00 0.00 0.00 0.00 0.00 0.00 0.00 0.00 0.00 0.00 0.00 0.00 0.00 0.00 0.00 0.00 0.00 0.00 0.00 0.00 0.00 0.00 0.00 0.00 0.00
0.00 0.00 0.00 0.00 0.00 0.00 0.00 0.00 0.00 0.00 0.00 0.00 0.00 0.00 0.00 0.01 0.00 0.00 0.00 0.00 0.00 0.00 0.00 0.00 0.00 0.00 0.00 0.00 0.00 0.00 0.00 0.00 0.00 0.00 0.00 0.00 0.00 0.00 0.00 0.00 0.00 0.00 0.00 0.00
0.00 0.00 0.00 0.00 0.00 0.00 0.00 0.00 0.00 0.00 0.01 0.01 0.01 0.01 0.01 0.01 0.01 0.00 0.00 0.00 0.00 0.00 0.00 0.00 0.00 0.00 0.00 0.00 0.00 0.00 0.00 0.00 0.00 0.00 0.00 0.00 0.00 0.00 0.00 0.00 0.00 0.00 0.00 0.00
0.00 0.00 0.00 0.00 0.00 0.00 0.00 0.00 0.00 0.00 0.00 0.00 0.01 0.01 0.01 0.01 0.01 0.01 0.00 0.00 0.00 0.00 0.00 0.00 0.00 0.00 0.00 0.00 0.00 0.00 0.00 0.00 0.00 0.00 0.00 0.00 0.00 0.00 0.00 0.00 0.00 0.00 0.00 0.00
0.00 0.01 0.01 0.01 0.00 0.00 0.00 0.00 0.00 0.00 0.00 0.00 0.00 0.00 0.00 0.00 0.00 0.00 0.00 0.00 0.00 0.00 0.00 0.00 0.00 0.00 0.00 0.00 0.00 0.00 0.00 0.00 0.00 0.00 0.00 0.00 0.00 0.00 0.00 0.00 0.00 0.00 0.00 0.00
MSLP
1014.20 1014.63 1015.02 1015.34 1015.61 1015.85 1016.07 1016.30 1016.55 1016.81 1017.05 1017.22 1017.30 1017.26 1017.10 1016.83 1016.50 1016.17 1015.88 1015.67 1015.56 1015.55 1015.62 1015.73 1015.85 1015.93 1015.97 1015.97 1015.95 1015.92 1015.92 1015.97 1016.06 1016.20 1016.36 1016.51 1016.64 1016.72 1016.76 1016.77 1016.76 1016.76 1016.80 1016.89
1014.07 1014.42 1014.76 1015.07 1015.36 1015.65 1015.95 1016.26 1016.57 1016.87 1017.11 1017.26 1017.29 1017.19 1016.98 1016.68 1016.35 1016.04 1015.80 1015.66 1015.63 1015.68 1015.80 1015.93 1016.04 1016.10 1016.11 1016.07 1016.02 1015.98 1015.98 1016.04 1016.16 1016.31 1016.47 1016.61 1016.70 1016.72 1016.68 1016.60 1016.50 1016.42 1016.38 1016.41
1013.92 1014.20 1014.49 1014.80 1015.14 1015.50 1015.90 1016.31 1016.71 1017.06 1017.32 1017.44 1017.41 1017.23 1016.94 1016.58 1016.21 1015.89 1015.67 1015.58 1015.60 1015.71 1015.88 1016.04 1016.17 1016.23 1016.23 1016.18 1016.12 1016.09 1016.11 1016.19 1016.33 1016.50 1016.66 1016.79 1016.84 1016.80 1016.67 1016.50 1016.30 1016.13 1016.01 1015.97
1013.81 1014.03 1014.30 1014.62 1015.01 1015.47 1015.98 1016.51 1017.00 1017.40 1017.67 1017.75 1017.64 1017.36 1016.96 1016.49 1016.04 1015.68 1015.46 1015.38 1015.45 1015.62 1015.85 1016.07 1016.23 1016.33 1016.35 1016.32 1016.28 1016.26 1016.30 1016.40 1016.55 1016.73 1016.89 1016.99 1017.00 1016.90 1016.71 1016.45 1016.16 1015.89 1015.69 1015.57
1013.79 1013.97 1014.23 1014.58 1015.03 1015.58 1016.20 1016.83 1017.40 1017.85 1018.10 1018.13 1017.93 1017.52 1016.98 1016.39 1015.84 1015.41 1015.15 1015.09 1015.19 1015.43 1015.73 1016.02 1016.26 1016.42 1016.50 1016.51 1016.50 1016.50 1016.56 1016.67 1016.82 1016.99 1017.13 1017.20 1017.17 1017.02 1016.77 1016.44 1016.08 1015.74 1015.46 1015.26
1013.89 1014.04 1014.29 1014.67 1015.17 1015.80 1016.50 1017.21 1017.84 1018.31 1018.54 1018.49 1018.18 1017.64 1016.96 1016.23 1015.57 1015.07 1014.78 1014.72 1014.87 1015.17 1015.56 1015.96 1016.30 1016.55 1016.70 1016.77 1016.80 1016.83 1016.88 1016.98 1017.11 1017.25 1017.36 1017.39 1017.32 1017.14 1016.84 1016.48 1016.08 1015.69 1015.35 1015.10
1014.06 1014.21 1014.46 1014.85 1015.39 1016.06 1016.82 1017.57 1018.22 1018.68 1018.86 1018.74 1018.32 1017.66 1016.85 1016.01 1015.25 1014.68 1014.37 1014.32 1014.52 1014.91 1015.41 1015.92 1016.38 1016.74 1016.98 1017.12 1017.19 1017.23 1017.27 1017.34 1017.43 1017.52 1017.57 1017.56 1017.47 1017.26 1016.96 1016.58 1016.17 1015.77 1015.41 1015.12
1014.28 1014.42 1014.66 1015.04 1015.59 1016.27 1017.04 1017.79 1018.43 1018.86 1018.99 1018.80 1018.29 1017.53 1016.63 1015.70 1014.88 1014.29 1013.97 1013.96 1014.22 1014.71 1015.31 1015.95 1016.53 1017.00 1017.34 1017.55 1017.66 1017.71 1017.72 1017.74 1017.77 1017.79 1017.79 1017.74 1017.61 1017.41 1017.12 1016.77 1016.39 1016.01 1015.67 1015.37
1014.46 1014.59 1014.82 1015.18 1015.71 1016.36 1017.09 1017.81 1018.41 1018.78 1018.86 1018.61 1018.05 1017.24 1016.29 1015.34 1014.51 1013.92 1013.63 1013.67 1014.01 1014.59 1015.30 1016.05 1016.75 1017.32 1017.75 1018.02 1018.16 1018.21 1018.20 1018.16 1018.12 1018.08 1018.02 1017.93 1017.79 1017.59 1017.34 1017.05 1016.73 1016.40 1016.10 1015.83
1014.57 1014.70 1014.90 1015.23 1015.70 1016.29 1016.96 1017.61 1018.14 1018.45 1018.48 1018.19 1017.61 1016.80 1015.87 1014.94 1014.15 1013.61 1013.39 1013.50 1013.91 1014.56 1015.37 1016.21 1017.00 1017.67 1018.17 1018.49 1018.66 1018.70 1018.66 1018.58 1018.48 1018.37 1018.26 1018.14 1018.00 1017.83 1017.63 1017.41 1017.16 1016.92 1016.68 1016.46
1014.58 1014.70 1014.89 1015.17 1015.58 1016.09 1016.67 1017.22 1017.66 1017.91 1017.89 1017.59 1017.02 1016.25 1015.39 1014.55 1013.85 1013.40 1013.25 1013.44 1013.92 1014.63 1015.50 1016.40 1017.25 1017.98 1018.53 1018.89 1019.09 1019.13 1019.08 1018.96 1018.82 1018.67 1018.52 1018.39 1018.26 1018.13 1017.98 1017.83 1017.67 1017.50 1017.34 1017.18
1014.52 1014.66 1014.83 1015.07 1015.41 1015.83 1016.30 1016.74 1017.07 1017.24 1017.17 1016.87 1016.34 1015.65 1014.89 1014.17 1013.60 1013.26 1013.21 1013.47 1014.00 1014.76 1015.65 1016.58 1017.45 1018.20 1018.78 1019.18 1019.39 1019.46 1019.40 1019.28 1019.12 1018.95 1018.80 1018.67 1018.55 1018.45 1018.37 1018.28 1018.20 1018.11 1018.01 1017.91
1014.43 1014.60 1014.78 1015.00 1015.27 1015.59 1015.94 1016.25 1016.46 1016.53 1016.41 1016.10 1015.62 1015.03 1014.39 1013.82 1013.39 1013.17 1013.23 1013.55 1014.12 1014.89 1015.78 1016.69 1017.56 1018.31 1018.90 1019.32 1019.56 1019.65 1019.62 1019.51 1019.37 1019.21 1019.07 1018.95 1018.87 1018.80 1018.76 1018.74 1018.71 1018.68 1018.64 1018.59
1014.38 1014.60 1014.80 1015.00 1015.22 1015.44 1015.65 1015.81 1015.89 1015.84 1015.66 1015.33 1014.89 1014.39 1013.88 1013.45 1013.17 1013.10 1013.25 1013.64 1014.24 1015.00 1015.86 1016.74 1017.57 1018.30 1018.89 1019.32 1019.58 1019.71 1019.72 1019.66 1019.56 1019.44 1019.33 1019.24 1019.19 1019.16 1019.16 1019.18 1019.20 1019.21 1019.22 1019.20
1014.38 1014.67 1014.90 1015.10 1015.26 1015.38 1015.45 1015.46 1015.37 1015.19 1014.92 1014.56 1014.14 1013.71 1013.33 1013.05 1012.92 1012.98 1013.24 1013.69 1014.32 1015.07 1015.89 1016.72 1017.51 1018.20 1018.77 1019.20 1019.50 1019.67 1019.74 1019.74 1019.69 1019.63 1019.57 1019.53 1019.51 1019.52 1019.56 1019.60 1019.66 1019.71 1019.74 1019.75
1014.45 1014.80 1015.07 1015.26 1015.36 1015.38 1015.30 1015.14 1014.89 1014.56 1014.18 1013.76 1013.36 1013.00 1012.73 1012.59 1012.61 1012.80 1013.17 1013.69 1014.35 1015.09 1015.88 1016.66 1017.40 1018.05 1018.59 1019.03 1019.35 1019.56 1019.69 1019.76 1019.79 1019.79 1019.79 1019.81 1019.84 1019.89 1019.95 1020.03 1020.11 1020.18 1020.23 1020.27
1014.54 1014.93 1015.22 1015.40 1015.44 1015.34 1015.13 1014.79 1014.37 1013.90 1013.41 1012.94 1012.53 1012.23 1012.06 1012.06 1012.22 1012.55 1013.03 1013.64 1014.34 1015.09 1015.86 1016.60 1017.29 1017.90 1018.42 1018.85 1019.19 1019.44 1019.63 1019.76 1019.86 1019.94 1020.01 1020.08 1020.17 1020.26 1020.36 1020.47 1020.57 1020.66 1020.73 1020.78
1014.60 1015.00 1015.28 1015.42 1015.39 1015.18 1014.83 1014.35 1013.78 1013.17 1012.59 1012.07 1011.67 1011.43 1011.36 1011.49 1011.79 1012.26 1012.87 1013.57 1014.32 1015.10 1015.86 1016.57 1017.22 1017.80 1018.30 1018.71 1019.06 1019.34 1019.57 1019.76 1019.93 1020.07 1020.21 1020.35 1020.49 1020.64 1020.78 1020.92 1021.05 1021.16 1021.25 1021.32
1014.58 1014.95 1015.18 1015.24 1015.13 1014.82 1014.35 1013.75 1013.07 1012.38 1011.74 1011.21 1010.84 1010.66 1010.70 1010.95 1011.39 1011.99 1012.71 1013.49 1014.31 1015.12 1015.88 1016.58 1017.21 1017.76 1018.23 1018.63 1018.98 1019.28 1019.54 1019.78 1020.00 1020.21 1020.41 1020.61 1020.81 1021.01 1021.20 1021.37 1021.53 1021.67 1021.78 1021.85
1014.48 1014.74 1014.88 1014.85 1014.64 1014.24 1013.69 1013.01 1012.28 1011.56 1010.91 1010.41 1010.10 1010.01 1010.15 1010.51 1011.07 1011.78 1012.59 1013.45 1014.32 1015.15 1015.92 1016.62 1017.22 1017.75 1018.20 1018.59 1018.93 1019.24 1019.53 1019.80 1020.06 1020.32 1020.58 1020.84 1021.09 1021.34 1021.58 1021.79 1021.98 1022.14 1022.26 1022.34
1014.31 1014.41 1014.41 1014.26 1013.96 1013.49 1012.89 1012.20 1011.47 1010.79 1010.20 1009.78 1009.55 1009.56 1009.79 1010.26 1010.90 1011.68 1012.55 1013.45 1014.34 1015.18 1015.95 1016.62 1017.21 1017.72 1018.15 1018.54 1018.88 1019.19 1019.50 1019.80 1020.10 1020.40 1020.70 1021.01 1021.31 1021.60 1021.88 1022.13 1022.34 1022.52 1022.65 1022.73
1014.12 1014.03 1013.85 1013.57 1013.17 1012.66 1012.06 1011.41 1010.75 1010.16 1009.69 1009.38 1009.26 1009.37 1009.69 1010.22 1010.90 1011.71 1012.58 1013.47 1014.34 1015.15 1015.89 1016.54 1017.11 1017.60 1018.03 1018.41 1018.76 1019.09 1019.41 1019.74 1020.07 1020.40 1020.75 1021.09 1021.43 1021.75 1022.06 1022.33 1022.57 1022.75 1022.88 1022.95
1013.97 1013.66 1013.30 1012.88 1012.40 1011.87 1011.31 1010.74 1010.21 1009.76 1009.43 1009.26 1009.27 1009.47 1009.84 1010.39 1011.07 1011.83 1012.65 1013.47 1014.27 1015.02 1015.71 1016.32 1016.86 1017.33 1017.76 1018.15 1018.51 1018.87 1019.22 1019.57 1019.93 1020.30 1020.68 1021.05 1021.42 1021.77 1022.09 1022.38 1022.62 1022.80 1022.92 1022.98
1013.92 1013.38 1012.84 1012.29 1011.75 1011.23 1010.73 1010.27 1009.90 1009.62 1009.45 1009.43 1009.55 1009.82 1010.22 1010.74 1011.35 1012.02 1012.72 1013.43 1014.11 1014.76 1015.36 1015.91 1016.41 1016.87 1017.30 1017.71 1018.10 1018.49 1018.88 1019.28 1019.68 1020.08 1020.48 1020.88 1021.27 1021.63 1021.96 1022.25 1022.49 1022.66 1022.77 1022.82
1013.99 1013.24 1012.54 1011.89 1011.30 1010.80 1010.38 1010.05 1009.83 1009.72 1009.72 1009.83 1010.04 1010.35 1010.74 1011.19 1011.69 1012.22 1012.76 1013.31 1013.83 1014.35 1014.84 1015.32 1015.78 1016.22 1016.66 1017.09 1017.53 1017.96 1018.40 1018.84 1019.28 1019.71 1020.15 1020.57 1020.97 1021.34 1021.67 1021.96 1022.19 1022.36 1022.46 1022.50
1014.15 1013.25 1012.43 1011.70 1011.09 1010.62 1010.28 1010.07 1010.00 1010.03 1010.17 1010.38 1010.65 1010.97 1011.31 1011.67 1012.03 1012.39 1012.75 1013.11 1013.48 1013.84 1014.22 1014.61 1015.02 1015.44 1015.89 1016.35 1016.82 1017.30 1017.78 1018.27 1018.75 1019.22 1019.68 1020.12 1020.54 1020.92 1021.26 1021.55 1021.78 1021.94 1022.04 1022.08
Thickness
5521 5526 5534 5545 5553 5560 5561 5561 5565 5575 5588 5589 5590 5596 5606 5616 5620 5625 5631 5640 5646 5650 5656 5661 5665 5669 5672 5674 5676 5678 5679 5681 5683 5683 5683 5683 5683 5685 5685 5685 5684 5683 5681 5679
5518 5526 5538 5545 5551 5557 5558 5556 5560 5570 5581 5583 5582 5588 5599 5608 5615 5622 5628 5635 5640 5643 5648 5651 5655 5658 5662 5664 5666 5668 5670 5672 5674 5676 5677 5677 5678 5679 5679 5679 5679 5678 5676 5674
5519 5530 5540 5544 5547 5550 5553 5555 5557 5562 5571 5576 5575 5577 5589 5603 5612 5619 5626 5632 5635 5638 5641 5643 5646 5649 5652 5654 5656 5659 5660 5663 5666 5668 5669 5670 5670 5670 5670 5671 5671 5671 5670 5668
5518 5530 5538 5540 5544 5547 5548 5559 5560 5560 5556 5556 5566 5559 5581 5595 5602 5612 5619 5624 5627 5632 5634 5636 5639 5641 5643 5645 5647 5650 5652 5654 5656 5659 5660 5660 5659 5659 5660 5661 5662 5662 5662 5661
5515 5526 5533 5537 5543 5548 5550 5560 5559 5556 5552 5551 5556 5554 5572 5587 5594 5609 5614 5616 5619 5622 5626 5629 5632 5634 5635 5636 5638 5641 5643 5644 5646 5648 5649 5649 5649 5649 5650 5651 5652 5653 5653 5653
5516 5523 5530 5536 5543 5549 5551 5549 5546 5542 5541 5539 5548 5546 5563 5579 5596 5606 5609 5610 5613 5615 5618 5621 5622 5624 5625 5626 5629 5631 5633 5634 5635 5637 5638 5638 5638 5639 5640 5641 5641 5642 5642 5642
5513 5518 5525 5533 5537 5542 5545 5537 5526 5526 5524 5531 5545 5546 5568 5590 5599 5604 5606 5605 5606 5607 5609 5610 5612 5613 5615 5616 5618 5620 5621 5622 5623 5625 5626 5627 5628 5629 5629 5630 5630 5631 5631 5631
5511 5515 5520 5527 5535 5536 5538 5537 5526 5524 5519 5524 5540 5544 5573 5589 5597 5601 5603 5601 5599 5600 5601 5602 5603 5603 5604 5606 5607 5608 5609 5610 5612 5613 5615 5617 5618 5619 5619 5619 5620 5620 5620 5620
5515 5516 5518 5524 5529 5535 5532 5531 5535 5526 5522 5523 5531 5549 5568 5584 5588 5591 5592 5592 5592 5593 5593 5593 5593 5593 5594 5594 5595 5596 5598 5599 5600 5602 5604 5605 5606 5607 5607 5608 5609 5609 5609 5610
5519 5516 5517 5520 5526 5527 5531 5532 5525 5520 5519 5524 5537 5545 5557 5573 5577 5582 5584 5585 5585 5585 5583 5582 5582 5582 5582 5583 5583 5585 5586 5587 5589 5590 5592 5593 5594 5595 5596 5597 5597 5597 5598 5598
5517 5516 5514 5516 5521 5525 5524 5526 5526 5520 5518 5523 5528 5545 5567 5571 5576 5578 5578 5578 5578 5576 5574 5572 5571 5571 5571 5571 5572 5573 5575 5576 5577 5579 5580 5581 5582 5583 5585 5585 5585 5585 5585 5586
5518 5513 5512 5513 5518 5523 5525 5526 5524 5519 5517 5514 5514 5539 5569 5569 5572 5572 5572 5572 5571 5569 5566 5563 5562 5560 5560 5560 5561 5562 5563 5565 5566 5567 5568 5569 5570 5571 5572 5572 5572 5573 5572 5572
5520 5510 5506 5506 5508 5513 5517 5522 5525 5523 5514 5504 5503 5537 5561 5563 5564 5566 5566 5564 5562 5559 5556 5553 5551 5551 5550 5551 5551 5553 5553 5555 5556 5557 5557 5558 5559 5559 5559 5560 5560 5560 5559 5559
5520 5508 5506 5513 5516 5514 5514 5520 5522 5516 5511 5508 5516 5538 5553 5555 5557 5558 5558 5556 5552 5550 5549 5545 5542 5541 5541 5542 5542 5543 5544 5545 5546 5547 5547 5547 5547 5547 5547 5547 5547 5547 5546 5546
5515 5505 5505 5513 5519 5512 5514 5519 5520 5517 5518 5515 5529 5536 5548 5552 5555 5555 5553 5549 5545 5543 5541 5539 5535 5533 5533 5533 5534 5535 5535 5536 5537 5537 5537 5537 5536 5536 5536 5535 5535 5534 5534 5533
5508 5502 5503 5505 5513 5513 5513 5517 5519 5522 5524 5523 5528 5535 5548 5552 5551 5549 5547 5546 5544 5541 5539 5535 5531 5528 5527 5527 5527 5528 5528 5528 5528 5528 5527 5527 5526 5526 5525 5524 5523 5522 5521 5520
5499 5496 5491 5489 5504 5508 5505 5522 5523 5523 5527 5528 5529 5540 5545 5545 5546 5547 5544 5544 5544 5540 5536 5531 5527 5524 5522 5521 5521 5521 5520 5520 5520 5519 5519 5518 5517 5516 5515 5514 5512 5510 5508 5507
5497 5489 5479 5482 5494 5488 5522 5533 5531 5530 5533 5532 5537 5540 5542 5545 5546 5545 5543 5542 5540 5537 5532 5526 5521 5518 5516 5516 5515 5514 5514 5513 5512 5511 5510 5509 5508 5507 5505 5503 5501 5499 5497 5494
5502 5494 5482 5481 5482 5495 5520 5532 5529 5524 5528 5537 5538 5539 5539 5539 5537 5536 5539 5539 5538 5533 5527 5522 5517 5514 5511 5510 5509 5508 5507 5506 5505 5503 5502 5501 5500 5498 5495 5493 5490 5488 5485 5482
5501 5498 5489 5489 5490 5495 5523 5534 5535 5531 5529 5542 5542 5540 5537 5533 5531 5534 5534 5531 5527 5524 5520 5516 5511 5509 5506 5505 5504 5502 5500 5499 5498 5497 5495 5493 5491 5489 5486 5484 5481 5479 5476 5472
5493 5492 5487 5484 5490 5501 5522 5530 5531 5520 5530 5540 5541 5539 5535 5534 5536 5533 5526 5522 5519 5516 5513 5510 5507 5504 5502 5501 5499 5497 5495 5494 5493 5491 5488 5486 5484 5481 5479 5476 5473 5470 5467 5464
5486 5484 5482 5484 5487 5499 5524 5524 5522 5526 5533 5536 5537 5536 5533 5530 5526 5521 5519 5516 5512 5510 5507 5504 5502 5499 5498 5496 5495 5492 5490 5489 5487 5485 5482 5480 5477 5475 5472 5469 5466 5462 5459 5456
5486 5491 5489 5492 5503 5515 5519 5521 5525 5526 5529 5532 5531 5530 5527 5523 5520 5517 5514 5511 5508 5505 5503 5500 5498 5495 5493 5492 5491 5489 5487 5484 5482 5479 5476 5474 5471 5468 5466 5462 5459 5456 5453 5450
5485 5490 5489 5492 5501 5509 5514 5516 5520 5523 5524 5526 5526 5524 5522 5520 5517 5514 5511 5507 5504 5501 5499 5497 5494 5492 5490 5489 5488 5486 5484 5481 5477 5474 5471 5468 5465 5462 5459 5457 5454 5450 5447 5444
5480 5482 5484 5490 5499 5504 5510 5511 5513 5514 5516 5517 5518 5517 5517 5515 5512 5510 5507 5505 5502 5500 5497 5494 5493 5491 5490 5487 5485 5483 5480 5477 5473 5469 5466 5463 5460 5456 5453 5450 5448 5445 5442 5439
5469 5474 5477 5484 5490 5491 5498 5502 5502 5504 5506 5507 5508 5508 5508 5507 5506 5505 5503 5502 5500 5497 5494 5492 5490 5489 5488 5485 5483 5480 5477 5473 5469 5465 5461 5458 5454 5450 5446 5443 5441 5440 5438 5436